EW3714 Weather Reports


Display with metric or nautical units.
time (UTC)temp
F
wind
direction
speed
MPH
gust
MPH
rain 1hr
in
rain 24hr
in
rain mn
in
humidity
%
barometer
mb
20260903192826 106 87 2.0 2.0 0.00 0.00 0.00 40 1012.4
20260903192322 104 284 1.0 3.0 0.00 0.00 0.00 41 1012.6
20260903191818 104 228 0.0 2.0 0.00 0.00 0.00 41 1012.7
20260903191314 104 331 1.0 2.0 0.00 0.00 0.00 41 1012.8
20260903190813 102 349 1.0 3.0 0.00 0.00 0.00 42 1012.9
20260903190309 102 34 2.0 2.0 0.00 0.00 0.00 44 1012.9
20260903185808 100 208 0.0 2.0 0.00 0.00 0.00 45 1013.2
20260903185309 103 269 0.0 2.0 0.00 0.00 0.00 42 1013.2
20260903184805 103 11 1.0 2.0 0.00 0.00 0.00 43 1013.2
20260903184301 101 319 2.0 2.0 0.00 0.00 0.00 43 1013.4
20260903183756 101 209 1.0 2.0 0.00 0.00 0.00 44 1013.3
20260903183250 102 284 0.0 2.0 0.00 0.00 0.00 43 1013.5
20260903182749 101 218 0.0 1.0 0.00 0.00 0.00 46 1013.7
20260903182244 98 218 0.0 1.0 0.00 0.00 0.00 49 1013.8
20260903181743 97 37 0.0 2.0 0.00 0.00 0.00 50 1013.8
20260903181238 97 311 1.0 1.0 0.00 0.00 0.00 49 1014.0
20260903180733 96 242 0.0 3.0 0.00 0.00 0.00 51 1013.9
20260903180233 95 195 0.0 0.0 0.00 0.00 0.00 51 1014.0
20260903175732 95 0 0.0 3.0 0.00 0.00 0.00 50 1014.2
20260903175232 96 356 2.0 2.0 0.00 0.00 0.00 51 1014.1
20260903174731 96 47 0.0 2.0 0.00 0.00 0.00 51 1014.0
20260903174227 98 337 1.0 4.0 0.00 0.00 0.00 50 1013.9
20260903173722 97 287 0.0 3.0 0.00 0.00 0.00 49 1013.9
20260903173218 98 37 0.0 4.0 0.00 0.00 0.00 49 1014.2
20260903172717 97 124 0.0 4.0 0.00 0.00 0.00 51 1014.1
20260903172213 97 17 0.0 2.0 0.00 0.00 0.00 52 1014.2
20260903171708 96 353 1.0 2.0 0.00 0.00 0.00 53 1014.2
20260903171204 95 95 2.0 2.0 0.00 0.00 0.00 53 1014.3
20260903170702 95 201 1.0 2.0 0.00 0.00 0.00 53 1014.3
20260903170158 95 11 1.0 3.0 0.00 0.00 0.00 55 1014.3
20260903165655 94 28 1.0 2.0 0.00 0.00 0.00 57 1014.2
20260903165151 93 44 0.0 1.0 0.00 0.00 0.00 60 1014.4
20260903164645 92 235 0.0 2.0 0.00 0.00 0.00 61 1014.2
20260903164142 92 26 0.0 1.0 0.00 0.00 0.00 62 1014.4
20260903163636 91 338 0.0 2.0 0.00 0.00 0.00 61 1014.4
20260903163132 91 221 1.0 2.0 0.00 0.00 0.00 61 1014.4
20260903162628 90 57 2.0 3.0 0.00 0.00 0.00 62 1014.5
20260903162124 90 103 0.0 2.0 0.00 0.00 0.00 62 1014.5
20260903161624 90 216 0.0 2.0 0.00 0.00 0.00 63 1014.5
20260903161120 89 322 0.0 1.0 0.00 0.00 0.00 65 1014.5
20260903160615 89 10 0.0 4.0 0.00 0.00 0.00 64 1014.6
20260903160109 89 30 3.0 3.0 0.00 0.00 0.00 66 1014.3
20260903155608 88 284 0.0 2.0 0.00 0.00 0.00 66 1014.4
20260903155103 88 59 0.0 3.0 0.00 0.00 0.00 66 1014.3
20260903154559 88 21 2.0 2.0 0.00 0.00 0.00 68 1014.5
20260903154055 88 0 0.0 2.0 0.00 0.00 0.00 67 1014.5
20260903153550 87 163 0.0 3.0 0.00 0.00 0.00 68 1014.5
20260903153046 87 195 1.0 2.0 0.00 0.00 0.00 69 1014.5
20260903152542 87 272 1.0 2.0 0.00 0.00 0.00 68 1014.6
20260903152038 87 263 1.0 2.0 0.00 0.00 0.00 69 1014.5
20260903151537 87 33 1.0 3.0 0.00 0.00 0.00 69 1014.4
20260903151033 86 13 2.0 3.0 0.00 0.00 0.00 69 1014.6
20260903150532 86 131 1.0 6.0 0.00 0.00 0.00 70 1014.3
20260903150028 86 252 0.0 2.0 0.00 0.00 0.00 71 1014.5
20260903145527 85 200 0.0 2.0 0.00 0.00 0.00 72 1014.5
20260903145023 85 176 0.0 6.0 0.00 0.00 0.00 73 1014.5
20260903144522 85 40 1.0 2.0 0.00 0.00 0.00 74 1014.4
20260903144018 84 34 0.0 5.0 0.00 0.00 0.00 75 1014.3
20260903143514 84 121 1.0 3.0 0.00 0.00 0.00 74 1014.8
20260903143010 84 117 0.0 3.0 0.00 0.00 0.00 76 1014.6
20260903142505 84 57 0.0 2.0 0.00 0.00 0.00 76 1014.5
20260903142001 84 81 1.0 2.0 0.00 0.00 0.00 76 1014.5
20260903141456 84 302 1.0 5.0 0.00 0.00 0.00 76 1014.6
20260903140952 84 117 3.0 3.0 0.00 0.00 0.00 77 1014.6
20260903140448 83 57 1.0 2.0 0.00 0.00 0.00 78 1014.5
20260903135942 83 56 1.0 3.0 0.00 0.00 0.00 79 1014.5
20260903135438 83 125 1.0 3.0 0.00 0.00 0.00 79 1014.3
20260903134933 83 70 0.0 4.0 0.00 0.00 0.00 79 1014.4
20260903134431 83 39 2.0 2.0 0.00 0.00 0.00 80 1014.5
20260903133929 82 1 1.0 3.0 0.00 0.00 0.00 81 1014.6
20260903133426 82 24 3.0 3.0 0.00 0.00 0.00 82 1014.6
20260903132921 82 315 0.0 2.0 0.00 0.00 0.00 82 1014.6
20260903132416 82 92 1.0 2.0 0.00 0.00 0.00 83 1014.3
20260903131916 82 281 0.0 4.0 0.00 0.00 0.00 82 1014.6
20260903131416 82 41 1.0 3.0 0.00 0.00 0.00 83 1014.5
20260903130915 81 37 0.0 1.0 0.00 0.00 0.00 84 1014.5
20260903130411 81 153 0.0 2.0 0.00 0.00 0.00 84 1014.5
20260903125909 81 33 0.0 5.0 0.00 0.00 0.00 84 1014.6
20260903125404 81 59 2.0 4.0 0.00 0.00 0.00 84 1014.5
20260903124903 81 31 0.0 2.0 0.00 0.00 0.00 85 1014.5
20260903124359 81 230 0.0 2.0 0.00 0.00 0.00 85 1014.5
20260903123857 81 306 0.0 2.0 0.00 0.00 0.00 86 1014.4
20260903123352 81 54 2.0 4.0 0.00 0.00 0.00 86 1014.5
20260903122851 81 323 0.0 1.0 0.00 0.00 0.00 87 1014.3
20260903122346 81 61 1.0 1.0 0.00 0.00 0.00 86 1014.3
20260903121845 80 33 1.0 3.0 0.00 0.00 0.00 86 1014.1
20260903121340 80 328 0.0 2.0 0.00 0.00 0.00 86 1014.2
20260903120836 80 113 0.0 1.0 0.00 0.00 0.00 87 1014.1
20260903120335 80 205 0.0 2.0 0.00 0.00 0.00 86 1014.2
20260903115833 80 41 0.0 2.0 0.00 0.00 0.00 87 1014.2
20260903115328 80 330 0.0 3.0 0.00 0.00 0.00 86 1014.1
20260903114828 81 171 1.0 2.0 0.00 0.00 0.00 87 1014.1
20260903114324 81 41 2.0 3.0 0.00 0.00 0.00 87 1014.2
20260903113819 80 340 0.0 3.0 0.00 0.00 0.00 87 1014.0
20260903113315 80 246 0.0 2.0 0.00 0.00 0.00 86 1014.0
20260903112810 80 51 2.0 2.0 0.00 0.00 0.00 87 1014.1
20260903112306 80 205 1.0 2.0 0.00 0.00 0.00 87 1014.0
20260903111805 80 12 0.0 2.0 0.00 0.00 0.00 87 1013.9
20260903111300 81 41 1.0 2.0 0.00 0.00 0.00 87 1013.9
20260903110756 80 269 0.0 3.0 0.00 0.00 0.00 87 1013.8
20260903110251 80 259 0.0 3.0 0.00 0.00 0.00 87 1013.9
20260903105751 80 180 1.0 4.0 0.00 0.00 0.00 87 1013.8
20260903105246 81 89 0.0 2.0 0.00 0.00 0.00 86 1013.9
20260903104746 81 314 1.0 3.0 0.00 0.00 0.00 87 1013.7
20260903104241 81 180 0.0 4.0 0.00 0.00 0.00 87 1013.8
20260903103736 81 82 0.0 2.0 0.00 0.00 0.00 86 1013.6
20260903103233 81 37 0.0 2.0 0.00 0.00 0.00 87 1013.7
20260903102729 81 10 1.0 2.0 0.00 0.00 0.00 87 1013.7
20260903102228 81 352 0.0 2.0 0.00 0.00 0.00 86 1013.6
20260903101727 81 137 1.0 2.0 0.00 0.00 0.00 86 1013.6
20260903101223 81 322 0.0 3.0 0.00 0.00 0.00 87 1013.7
20260903100724 81 25 0.0 2.0 0.00 0.00 0.00 87 1013.5
20260903100223 80 155 0.0 2.0 0.00 0.00 0.00 87 1013.6
20260903095721 80 25 0.0 3.0 0.00 0.00 0.00 87 1013.7
20260903095216 80 33 2.0 2.0 0.00 0.00 0.00 86 1013.7
20260903094711 80 322 0.0 1.0 0.00 0.00 0.00 87 1013.8
20260903094206 81 205 0.0 2.0 0.00 0.00 0.00 87 1013.8
20260903093702 81 84 1.0 3.0 0.00 0.00 0.00 87 1013.7
20260903093157 81 356 1.0 2.0 0.00 0.00 0.00 86 1013.8
20260903092656 81 141 0.0 2.0 0.00 0.00 0.00 85 1013.7
20260903092151 81 37 0.0 1.0 0.00 0.00 0.00 85 1013.8
20260903091650 81 30 2.0 2.0 0.00 0.00 0.00 85 1013.9
20260903091150 81 142 0.0 1.0 0.00 0.00 0.00 85 1013.8
20260903090646 81 353 2.0 2.0 0.00 0.00 0.00 84 1014.0
20260903090144 81 195 0.0 1.0 0.00 0.00 0.00 84 1014.1
20260903085643 81 145 0.0 2.0 0.00 0.00 0.00 84 1014.1
20260903085139 81 34 1.0 2.0 0.00 0.00 0.00 84 1014.0
20260903084636 81 322 0.0 2.0 0.00 0.00 0.00 83 1013.9
20260903084131 81 11 0.0 2.0 0.00 0.00 0.00 83 1014.1
20260903083627 82 326 0.0 2.0 0.00 0.00 0.00 83 1013.8
20260903083122 82 44 0.0 2.0 0.00 0.00 0.00 83 1014.0
20260903082621 82 44 0.0 2.0 0.00 0.00 0.00 83 1014.1
20260903082118 82 171 0.0 2.0 0.00 0.00 0.00 82 1014.1
20260903081612 82 11 1.0 3.0 0.00 0.00 0.00 83 1013.8
20260903081108 82 125 2.0 3.0 0.00 0.00 0.00 82 1014.0
20260903080604 82 122 2.0 2.0 0.00 0.00 0.00 82 1014.0
20260903075555 82 46 1.0 2.0 0.00 0.00 0.00 81 1014.0
20260903075050 82 30 2.0 3.0 0.00 0.00 0.00 80 1014.1
20260903074550 82 35 1.0 3.0 0.00 0.00 0.00 80 1014.0
20260903074049 82 23 2.0 2.0 0.00 0.00 0.00 80 1014.0
20260903073545 82 52 2.0 2.0 0.00 0.00 0.00 80 1014.1
20260903073041 82 53 0.0 2.0 0.00 0.00 0.00 80 1014.1
20260903072536 82 36 2.0 3.0 0.00 0.00 0.00 79 1014.3
20260903072033 82 37 1.0 2.0 0.00 0.00 0.00 80 1014.2
20260903071529 82 333 0.0 1.0 0.00 0.00 0.00 78 1014.3
20260903071024 82 265 0.0 2.0 0.00 0.00 0.00 78 1014.2
20260903070524 83 43 2.0 4.0 0.00 0.00 0.00 78 1014.2
20260903070020 83 36 1.0 2.0 0.00 0.00 0.00 77 1014.2
20260903065519 83 17 2.0 2.0 0.00 0.00 0.00 77 1014.2
20260903065019 83 28 0.0 2.0 0.00 0.00 0.00 76 1014.3
20260903064519 83 332 0.0 2.0 0.00 0.00 0.00 76 1014.2
20260903064014 83 320 0.0 2.0 0.00 0.00 0.00 75 1014.2
20260903063510 83 32 2.0 2.0 0.00 0.00 0.00 75 1014.4
20260903063005 83 246 1.0 3.0 0.00 0.00 0.00 74 1014.4
20260903062500 83 58 0.0 2.0 0.00 0.00 0.00 74 1014.5
20260903061955 83 294 0.0 4.0 0.00 0.00 0.00 73 1014.3
20260903061450 84 269 0.0 2.0 0.00 0.00 0.00 72 1014.3
20260903060946 84 299 0.0 2.0 0.00 0.00 0.00 71 1014.3
20260903060445 84 51 0.0 3.0 0.00 0.00 0.00 72 1014.3
20260903055944 84 214 2.0 3.0 0.00 0.00 0.00 70 1014.4
20260903055443 84 355 0.0 1.0 0.00 0.00 0.00 69 1014.2
20260903054942 84 324 1.0 3.0 0.00 0.00 0.00 69 1014.2
20260903054437 84 352 0.0 3.0 0.00 0.00 0.00 68 1014.3
20260903053933 84 199 1.0 9.0 0.00 0.00 0.00 67 1014.3
20260903053433 84 16 0.0 2.0 0.00 0.00 0.00 67 1014.4
20260903052929 84 325 0.0 2.0 0.00 0.00 0.00 67 1014.3
20260903052425 84 32 0.0 2.0 0.00 0.00 0.00 68 1014.2
20260903051921 84 218 0.0 2.0 0.00 0.00 0.00 68 1014.2
20260903051416 84 50 0.0 2.0 0.00 0.00 0.00 68 1014.3
20260903050911 84 4 0.0 2.0 0.00 0.00 0.00 68 1014.1
20260903050410 84 66 0.0 0.0 0.00 0.00 0.00 68 1014.4
20260903045905 84 234 1.0 1.0 0.00 0.00 0.00 68 1014.2
20260903045400 84 297 0.0 3.0 0.00 0.00 0.00 69 1014.2
20260903044857 85 180 0.0 1.0 0.00 0.00 0.00 68 1014.2
20260903044357 85 333 0.0 0.0 0.00 0.00 0.00 68 1014.1
20260903043855 84 99 0.0 2.0 0.00 0.00 0.00 68 1014.3
20260903043355 85 15 0.0 1.0 0.00 0.00 0.00 69 1014.3
20260903042853 85 24 0.0 1.0 0.00 0.00 0.00 69 1014.1
20260903042349 85 157 0.0 2.0 0.00 0.00 0.00 68 1014.2
20260903041845 85 234 0.0 2.0 0.00 0.00 0.00 68 1014.1
20260903041341 85 217 0.0 0.0 0.00 0.00 0.00 68 1014.2
20260903040836 85 281 0.0 0.0 0.00 0.00 0.00 68 1014.2
20260903040335 85 15 0.0 1.0 0.00 0.00 0.00 67 1014.0
20260903035832 85 322 0.0 0.0 0.00 0.00 0.00 66 1014.0
20260903035326 85 347 0.0 1.0 0.00 0.00 0.00 66 1014.0
20260903034822 86 62 0.0 2.0 0.00 0.00 0.00 66 1014.1
20260903034316 86 246 0.0 1.0 0.00 0.00 0.00 65 1014.0
20260903033812 86 345 0.0 1.0 0.00 0.00 0.00 64 1013.9
20260903033307 86 44 0.0 1.0 0.00 0.00 0.00 65 1014.1
20260903032807 87 38 0.0 2.0 0.00 0.00 0.00 63 1014.1
20260903032305 87 173 0.0 1.0 0.00 0.00 0.00 61 1014.0
20260903031758 88 309 0.0 1.0 0.00 0.00 0.00 59 1013.9
20260903031257 89 29 0.0 0.0 0.00 0.00 0.00 59 1013.7
20260903030753 89 217 0.0 0.0 0.00 0.00 0.00 57 1013.5
20260903030249 89 69 0.0 0.0 0.00 0.00 0.00 57 1013.5
20260903025750 89 6 0.0 2.0 0.00 0.00 0.00 56 1013.2
20260903025245 89 22 0.0 2.0 0.00 0.00 0.00 56 1013.3
20260903024740 90 320 0.0 2.0 0.00 0.00 0.00 55 1013.2
20260903024239 90 75 0.0 0.0 0.00 0.00 0.00 55 1013.0
20260903023735 90 142 0.0 0.0 0.00 0.00 0.00 54 1012.8
20260903023230 90 89 0.0 1.0 0.00 0.00 0.00 56 1012.9
20260903022730 90 62 0.0 0.0 0.00 0.00 0.00 55 1012.7
20260903022229 90 62 0.0 0.0 0.00 0.00 0.00 55 1012.6
20260903021724 90 89 0.0 0.0 0.00 0.00 0.00 55 1012.4
20260903021220 90 89 0.0 0.0 0.00 0.00 0.00 55 1012.3
20260903020719 90 89 0.0 0.0 0.00 0.00 0.00 55 1012.5
20260903020214 90 89 0.0 0.0 0.00 0.00 0.00 54 1012.2
20260903015709 90 89 0.0 0.0 0.00 0.00 0.00 54 1012.1
20260903015205 91 89 0.0 0.0 0.00 0.00 0.00 54 1012.0
20260903014700 91 89 0.0 0.0 0.00 0.00 0.00 53 1012.1
20260903014159 91 89 0.0 0.0 0.00 0.00 0.00 53 1011.9
20260903013654 91 89 0.0 0.0 0.00 0.00 0.00 52 1011.9
20260903013154 91 22 0.0 0.0 0.00 0.00 0.00 52 1011.8
20260903012653 92 22 0.0 0.0 0.00 0.00 0.00 51 1012.0
20260903012152 92 25 0.0 0.0 0.00 0.00 0.00 51 1012.0
20260903011653 92 269 0.0 0.0 0.00 0.00 0.00 51 1011.9
20260903011152 92 293 0.0 1.0 0.00 0.00 0.00 50 1012.0
20260903010648 93 75 0.0 0.0 0.00 0.00 0.00 50 1012.1
20260903010147 93 314 1.0 1.0 0.00 0.00 0.00 49 1012.0
20260903005646 93 322 0.0 0.0 0.00 0.00 0.00 49 1012.0
20260903005142 94 13 0.0 0.0 0.00 0.00 0.00 48 1012.0
20260903004637 94 333 0.0 0.0 0.00 0.00 0.00 47 1012.0
20260903004132 94 316 0.0 1.0 0.00 0.00 0.00 47 1012.1
20260903003627 94 297 0.0 1.0 0.00 0.00 0.00 47 1012.0
20260903003123 94 339 0.0 1.0 0.00 0.00 0.00 47 1011.8
20260903002618 94 299 1.0 3.0 0.00 0.00 0.00 48 1012.0
20260903002112 94 337 2.0 2.0 0.00 0.00 0.00 47 1012.0
20260903001607 95 294 3.0 3.0 0.00 0.00 0.00 46 1012.2
20260903001107 96 243 0.0 2.0 0.00 0.00 0.00 45 1011.9
20260903000603 96 334 0.0 2.0 0.00 0.00 0.00 45 1011.9
20260902235600 96 332 1.0 4.0 0.00 0.00 0.00 45 1011.9
20260902235056 97 329 1.0 1.0 0.00 0.00 0.00 45 1011.9
20260902234550 97 313 3.0 3.0 0.00 0.00 0.00 44 1011.9
20260902234049 98 217 0.0 4.0 0.00 0.00 0.00 43 1012.0
20260902233544 100 322 0.0 0.0 0.00 0.00 0.00 39 1011.9
20260902233038 100 344 0.0 1.0 0.00 0.00 0.00 39 1011.9
20260902232537 99 246 0.0 1.0 0.00 0.00 0.00 40 1011.8
20260902232031 99 116 0.0 2.0 0.00 0.00 0.00 39 1011.7
20260902231527 100 329 1.0 2.0 0.00 0.00 0.00 39 1011.9
20260902231026 100 261 0.0 2.0 0.00 0.00 0.00 39 1011.5
20260902230521 100 322 0.0 1.0 0.00 0.00 0.00 40 1011.7
20260902230020 100 34 0.0 1.0 0.00 0.00 0.00 40 1011.7
20260902225516 100 95 0.0 2.0 0.00 0.00 0.00 39 1011.8
20260902225015 100 142 0.0 5.0 0.00 0.00 0.00 38 1011.8
20260902224514 100 322 0.0 1.0 0.00 0.00 0.00 40 1011.7
20260902224010 100 121 0.0 3.0 0.00 0.00 0.00 39 1011.8
20260902223507 100 15 0.0 2.0 0.00 0.00 0.00 39 1011.9
20260902223005 101 268 1.0 2.0 0.00 0.00 0.00 39 1011.7
20260902222504 101 19 0.0 1.0 0.00 0.00 0.00 40 1011.8
20260902222004 101 72 0.0 4.0 0.00 0.00 0.00 39 1011.9
20260902221503 101 53 2.0 2.0 0.00 0.00 0.00 39 1011.7
20260902220959 101 105 1.0 3.0 0.00 0.00 0.00 39 1012.0
20260902220459 101 147 0.0 2.0 0.00 0.00 0.00 39 1012.1
20260902215954 101 49 2.0 4.0 0.00 0.00 0.00 40 1012.0
20260902215450 101 358 1.0 2.0 0.00 0.00 0.00 41 1012.0
20260902214946 101 345 1.0 2.0 0.00 0.00 0.00 39 1011.9
20260902214445 101 53 0.0 4.0 0.00 0.00 0.00 39 1012.0
20260902213944 101 77 0.0 4.0 0.00 0.00 0.00 38 1012.0
20260902213441 101 80 3.0 4.0 0.00 0.00 0.00 38 1012.1
20260902212939 101 326 0.0 2.0 0.00 0.00 0.00 38 1012.0
20260902212436 102 220 2.0 2.0 0.00 0.00 0.00 38 1012.2
20260902211932 101 276 0.0 1.0 0.00 0.00 0.00 39 1012.1
20260902211427 100 200 0.0 2.0 0.00 0.00 0.00 39 1012.3
20260902210922 100 348 1.0 2.0 0.00 0.00 0.00 40 1012.3
20260902210422 101 44 0.0 2.0 0.00 0.00 0.00 40 1012.1
20260902205920 103 11 0.0 2.0 0.00 0.00 0.00 38 1012.3
20260902205416 105 262 0.0 6.0 0.00 0.00 0.00 36 1012.5
20260902204912 105 338 1.0 3.0 0.00 0.00 0.00 36 1012.6
20260902204411 104 329 2.0 3.0 0.00 0.00 0.00 36 1012.6
20260902203907 104 355 0.0 3.0 0.00 0.00 0.00 37 1012.7
20260902203402 102 82 3.0 3.0 0.00 0.00 0.00 38 1012.8
20260902202901 102 254 0.0 3.0 0.00 0.00 0.00 39 1012.9
20260902202357 102 43 2.0 4.0 0.00 0.00 0.00 39 1012.9
20260902201854 106 199 0.0 2.0 0.00 0.00 0.00 35 1012.9
20260902201354 106 70 0.0 3.0 0.00 0.00 0.00 35 1012.9
20260902200849 107 326 0.0 2.0 0.00 0.00 0.00 34 1013.0
20260902200344 105 348 0.0 2.0 0.00 0.00 0.00 35 1013.1
20260902195839 107 352 0.0 2.0 0.00 0.00 0.00 34 1013.0
20260902195338 107 15 2.0 4.0 0.00 0.00 0.00 35 1013.2
20260902194833 106 31 0.0 2.0 0.00 0.00 0.00 35 1013.2
20260902194333 105 308 0.0 2.0 0.00 0.00 0.00 35 1013.6
20260902193829 104 313 0.0 2.0 0.00 0.00 0.00 35 1013.5
20260902193325 102 246 0.0 2.0 0.00 0.00 0.00 38 1013.5